Flag for Switzerland Weather past 2 weeks in Solothurn, Solothurn, Switzerland

Now
65 °F

Mild.


Feels Like: 65 °F
Forecast: 54 / 76 °F
Wind: 8 mph from Southwest

Location: Grenchen

Current Time: Jul 26, 2014 at 3:11:30 PM

Latest Report: Jul 26, 2014 at 2:00 PM


Visibility: N/A

Pressure: 29.97 "Hg

Humidity: 85%

Dew point: 60 °F

Location of SolothurnLocation

Historic Weather in Solothurn — Graph

°F

Solothurn temperature yesterday

Maximum temperature yesterday: 81 °F (at 4:00 PM)
Minimum temperature yesterday: 54 °F (at 6:00 AM)
Average temperature yesterday: 67 °F

Past Weeks' High & Low Weather Summary

 TemperatureHumidityPressure
High89 °F (Jul 18, 5:00 PM)100% (Jul 12, 8:00 AM)30.22 "Hg (Jul 12, 8:00 AM)
Low53 °F (Jul 12, 6:00 AM)18% (Jul 18, 5:00 PM)29.81 "Hg (Jul 19, 8:00 PM)
Average67 °F76%29.98 "Hg
* Reported Jul 11 1:00 PM — Jul 26 1:00 PM, Solothurn, Weather by CustomWeather, © 2014

Note: Actual official high and low records may vary slightly from our data, if they occured in-between our weather recording intervals... More about our weather records

Advertising

Solothurn weather history for previous 24 hours

 ConditionsComfort  
Time TempWeatherWind HumidityBarometerVisibility
1:00 PM
Jul 26
64 °FMild.9 mph90%29.97 "HgN/A
12:00 PM64 °FMild.10 mph92%29.97 "HgN/A
11:00 AM64 °FMild.10 mph93%29.97 "HgN/A
10:00 AM63 °FMild.8 mph95%29.96 "HgN/A
9:00 AM62 °FCool.2 mph95%29.97 "HgN/A
8:00 AM61 °FCool.2 mph95%29.96 "HgN/A
7:00 AM62 °FCool.10 mph90%29.94 "HgN/A
6:00 AM60 °FCool.2 mph94%29.94 "HgN/A
5:00 AM60 °FCool.6 mph92%29.93 "HgN/A
4:00 AM60 °FCool.2 mph89%29.93 "HgN/A
3:00 AM59 °FCool.2 mph92%29.93 "HgN/A
2:00 AM60 °FCool.2 mph86%29.93 "HgN/A
1:00 AM61 °FCool.3 mph82%29.93 "HgN/A
12:00 AM63 °FMild.3 mph77%29.93 "HgN/A
11:00 PM
Jul 25
62 °FMild.1 mph80%29.92 "HgN/A
10:00 PM67 °FMild.2 mph64%29.90 "HgN/A
9:00 PM68 °FMild.1 mph62%29.88 "HgN/A
8:00 PM73 °FMild.5 mph41%29.86 "HgN/A
7:00 PM72 °FMild.6 mph50%29.84 "HgN/A
6:00 PM74 °FMild.3 mph50%29.83 "HgN/A
5:00 PM79 °FPleasantly warm.3 mph37%29.81 "HgN/A
4:00 PM81 °FPleasantly warm.3 mph37%29.83 "HgN/A
3:00 PM80 °FWarm.6 mph42%29.85 "HgN/A
Weather by CustomWeather, © 2014

See weather overviewHow to use our weather pages